When you browse on this site, cookies collect data to enhance your experience and personalize the content and advertising you see.
Visit our Privacy Policy to learn more. By continuing to use the site, you agree to this use of cookies and data.
  • In Latvia
  • List of Countries
  • For 7 days
  • Water Temperature
  • Weather Map
  • Weather Widgets
  • user-avatar
    Login

    Hourly Weather Albuquerque

    Today, 15 September, Sunday

    Time Temperature Precipitation Wind Pressure Humidity
    00:00 +23°C° 0 mm 1 mps 641 mmHg 59%
    01:00 +22°C° 0 mm 1 mps 640 mmHg 60%
    02:00 +22°C° 0 mm 1 mps 640 mmHg 62%
    03:00 +22°C° 0 mm 1 mps 640 mmHg 63%
    04:00 +22°C° 0 mm 1 mps 640 mmHg 64%
    05:00 +21°C° 0 mm 1 mps 640 mmHg 66%
    06:00 +21°C° 0 mm 2 mps 640 mmHg 62%
    07:00 +23°C° 0 mm 2 mps 640 mmHg 58%
    08:00 +22°C° 0 mm 3 mps 641 mmHg 54%
    09:00 +22°C° 0.2 mm 4 mps 640 mmHg 57%
    10:00 +22°C° 0.2 mm 5 mps 640 mmHg 60%
    11:00 +21°C° 0.2 mm 6 mps 640 mmHg 62%
    12:00 +22°C° 0.1 mm 4 mps 640 mmHg 58%
    13:00 +22°C° 0.1 mm 3 mps 639 mmHg 53%
    14:00 +24°C° 0.1 mm 2 mps 639 mmHg 49%
    15:00 +24°C° 0 mm 2 mps 639 mmHg 49%
    16:00 +24°C° 0 mm 2 mps 639 mmHg 49%
    17:00 +24°C° 0 mm 2 mps 639 mmHg 49%
    18:00 +22°C° 0.2 mm 3 mps 639 mmHg 53%
    19:00 +22°C° 0.2 mm 4 mps 639 mmHg 57%
    20:00 +21°C° 0.2 mm 5 mps 639 mmHg 61%
    21:00 +21°C° 0.1 mm 4 mps 639 mmHg 61%
    22:00 +21°C° 0.1 mm 4 mps 639 mmHg 61%
    23:00 +21°C° 0.1 mm 4 mps 639 mmHg 61%

    Tomorrow, 16 September, Monday

    Time Temperature Precipitation Wind Pressure Humidity
    00:00 +20°C° 0.2 mm 3 mps 638 mmHg 63%
    01:00 +20°C° 0.2 mm 3 mps 638 mmHg 65%
    02:00 +19°C° 0.2 mm 2 mps 638 mmHg 68%
    03:00 +19°C° 0.3 mm 2 mps 638 mmHg 71%
    04:00 +18°C° 0.3 mm 2 mps 638 mmHg 74%
    05:00 +18°C° 0.3 mm 2 mps 638 mmHg 77%
    06:00 +19°C° 0.1 mm 2 mps 638 mmHg 75%
    07:00 +19°C° 0.1 mm 3 mps 638 mmHg 72%
    08:00 +20°C° 0.1 mm 3 mps 639 mmHg 70%
    09:00 +21°C° 0 mm 3 mps 639 mmHg 63%
    10:00 +22°C° 0 mm 3 mps 639 mmHg 57%
    11:00 +25°C° 0 mm 3 mps 639 mmHg 50%
    12:00 +26°C° 0 mm 3 mps 639 mmHg 46%
    13:00 +27°C° 0 mm 2 mps 638 mmHg 41%
    14:00 +28°C° 0 mm 2 mps 638 mmHg 37%
    15:00 +28°C° 0 mm 2 mps 638 mmHg 35%
    16:00 +28°C° 0 mm 1 mps 638 mmHg 33%
    17:00 +28°C° 0 mm 1 mps 638 mmHg 31%
    18:00 +27°C° 0 mm 2 mps 638 mmHg 34%
    19:00 +27°C° 0 mm 2 mps 638 mmHg 36%
    20:00 +26°C° 0 mm 2 mps 638 mmHg 38%
    21:00 +25°C° 0 mm 2 mps 638 mmHg 42%
    22:00 +24°C° 0 mm 3 mps 638 mmHg 46%
    23:00 +24°C° 0 mm 3 mps 638 mmHg 50%

    Day after tomorrow, 17 September, Tuesday

    Time Temperature Precipitation Wind Pressure Humidity
    00:00 +23°C° 0 mm 2 mps 637 mmHg 53%
    01:00 +21°C° 0 mm 2 mps 637 mmHg 55%
    02:00 +21°C° 0 mm 2 mps 637 mmHg 58%
    03:00 +21°C° 0 mm 2 mps 637 mmHg 59%
    04:00 +20°C° 0 mm 2 mps 637 mmHg 60%
    05:00 +20°C° 0 mm 2 mps 637 mmHg 62%
    06:00 +21°C° 0 mm 2 mps 637 mmHg 59%
    07:00 +23°C° 0 mm 2 mps 638 mmHg 56%
    08:00 +24°C° 0 mm 3 mps 638 mmHg 53%
    09:00 +25°C° 0 mm 3 mps 638 mmHg 47%
    10:00 +26°C° 0 mm 3 mps 638 mmHg 41%
    11:00 +28°C° 0 mm 4 mps 639 mmHg 35%
    12:00 +29°C° 0 mm 4 mps 638 mmHg 31%
    13:00 +30°C° 0 mm 4 mps 638 mmHg 28%
    14:00 +32°C° 0 mm 5 mps 638 mmHg 24%
    15:00 +30°C° 0 mm 5 mps 638 mmHg 24%
    16:00 +30°C° 0 mm 5 mps 638 mmHg 24%
    17:00 +30°C° 0 mm 5 mps 638 mmHg 25%
    18:00 +29°C° 0 mm 4 mps 638 mmHg 27%
    19:00 +28°C° 0 mm 4 mps 638 mmHg 29%
    20:00 +27°C° 0 mm 3 mps 638 mmHg 31%
    21:00 +26°C° 0 mm 3 mps 638 mmHg 33%
    22:00 +25°C° 0 mm 2 mps 638 mmHg 35%
    23:00 +25°C° 0 mm 2 mps 638 mmHg 36%

    18 September, Wednesday

    Time Temperature Precipitation Wind Pressure Humidity
    00:00 +24°C° 0 mm 2 mps 638 mmHg 37%
    01:00 +24°C° 0 mm 2 mps 638 mmHg 39%
    02:00 +23°C° 0 mm 2 mps 638 mmHg 40%
    03:00 +23°C° 0 mm 2 mps 638 mmHg 43%
    04:00 +22°C° 0 mm 1 mps 638 mmHg 46%
    05:00 +21°C° 0 mm 1 mps 637 mmHg 49%
    06:00 +22°C° 0 mm 1 mps 638 mmHg 46%
    07:00 +24°C° 0 mm 2 mps 639 mmHg 44%
    08:00 +25°C° 0 mm 2 mps 640 mmHg 41%
    09:00 +26°C° 0 mm 2 mps 640 mmHg 37%
    10:00 +27°C° 0 mm 2 mps 640 mmHg 34%
    11:00 +28°C° 0 mm 2 mps 640 mmHg 30%
    12:00 +29°C° 0 mm 2 mps 639 mmHg 28%
    13:00 +29°C° 0 mm 2 mps 639 mmHg 27%
    14:00 +30°C° 0 mm 2 mps 639 mmHg 25%
    15:00 +30°C° 0 mm 2 mps 639 mmHg 25%
    16:00 +30°C° 0 mm 2 mps 639 mmHg 24%
    17:00 +30°C° 0 mm 2 mps 639 mmHg 24%
    18:00 +29°C° 0 mm 2 mps 639 mmHg 26%
    19:00 +28°C° 0 mm 2 mps 639 mmHg 28%
    20:00 +27°C° 0 mm 2 mps 639 mmHg 30%
    21:00 +27°C° 0 mm 2 mps 639 mmHg 31%
    22:00 +26°C° 0 mm 2 mps 639 mmHg 32%
    23:00 +26°C° 0 mm 1 mps 639 mmHg 33%

    19 September, Thursday

    Time Temperature Precipitation Wind Pressure Humidity
    00:00 +25°C° 0 mm 1 mps 638 mmHg 35%
    01:00 +25°C° 0 mm 1 mps 638 mmHg 38%
    02:00 +24°C° 0 mm 1 mps 638 mmHg 40%
    03:00 +24°C° 0 mm 1 mps 638 mmHg 41%
    04:00 +23°C° 0 mm 1 mps 637 mmHg 43%
    05:00 +23°C° 0 mm 1 mps 637 mmHg 45%
    06:00 +24°C° 0 mm 1 mps 638 mmHg 42%
    07:00 +25°C° 0 mm 2 mps 638 mmHg 40%
    08:00 +26°C° 0 mm 2 mps 639 mmHg 38%
    09:00 +27°C° 0 mm 3 mps 639 mmHg 35%
    10:00 +29°C° 0 mm 4 mps 639 mmHg 31%
    11:00 +30°C° 0 mm 5 mps 639 mmHg 28%
    12:00 +30°C° 0 mm 5 mps 639 mmHg 28%
    13:00 +30°C° 0 mm 5 mps 638 mmHg 28%
    14:00 +30°C° 0 mm 5 mps 638 mmHg 27%
    15:00 +29°C° 0.1 mm 4 mps 637 mmHg 30%
    16:00 +28°C° 0.1 mm 3 mps 637 mmHg 33%
    17:00 +27°C° 0.1 mm 2 mps 636 mmHg 37%
    18:00 +26°C° 0.3 mm 2 mps 636 mmHg 41%
    19:00 +25°C° 0.3 mm 2 mps 636 mmHg 46%
    20:00 +24°C° 0.3 mm 1 mps 636 mmHg 50%
    21:00 +24°C° 0.2 mm 1 mps 636 mmHg 53%
    22:00 +23°C° 0.2 mm 1 mps 636 mmHg 56%
    23:00 +23°C° 0.2 mm 1 mps 636 mmHg 59%

    20 September, Friday

    Time Temperature Precipitation Wind Pressure Humidity
    00:00 +22°C° 0.2 mm 1 mps 636 mmHg 61%
    01:00 +22°C° 0.2 mm 1 mps 636 mmHg 63%
    02:00 +21°C° 0.2 mm 1 mps 636 mmHg 64%
    03:00 +21°C° 0.3 mm 1 mps 635 mmHg 66%
    04:00 +21°C° 0.3 mm 1 mps 635 mmHg 69%
    05:00 +20°C° 0.3 mm 1 mps 635 mmHg 71%
    06:00 +21°C° 0.3 mm 1 mps 635 mmHg 68%
    07:00 +21°C° 0.3 mm 2 mps 636 mmHg 65%
    08:00 +23°C° 0.3 mm 2 mps 636 mmHg 62%
    09:00 +24°C° 0.1 mm 3 mps 636 mmHg 55%
    10:00 +26°C° 0.1 mm 4 mps 637 mmHg 48%
    11:00 +27°C° 0.1 mm 5 mps 637 mmHg 41%
    12:00 +28°C° 0 mm 5 mps 637 mmHg 37%
    13:00 +29°C° 0 mm 5 mps 636 mmHg 33%
    14:00 +30°C° 0 mm 6 mps 636 mmHg 29%
    15:00 +30°C° 0 mm 6 mps 636 mmHg 28%
    16:00 +30°C° 0 mm 6 mps 636 mmHg 26%
    17:00 +29°C° 0 mm 5 mps 636 mmHg 25%
    18:00 +28°C° 0 mm 5 mps 636 mmHg 27%
    19:00 +26°C° 0 mm 4 mps 636 mmHg 28%
    20:00 +25°C° 0 mm 4 mps 636 mmHg 30%
    21:00 +24°C° 0 mm 3 mps 636 mmHg 31%
    22:00 +22°C° 0 mm 3 mps 636 mmHg 32%
    23:00 +21°C° 0 mm 2 mps 636 mmHg 33%
    Show more